Theta_e
303 303 303 303 304 303 303 304 304 303 302 294 292 295 290 288 284 294 300 300 295 286 278 284 282 280 285 289 288 289 287 286 288 286 289 287 291 289 287 288 288 289 289 291 288 286 282 282 281 282 284 285 288 287 291 292 291 291 287 289 289 301 286 284 282 284 286 289 290 292 293 291 289 289 287 287 284 284 282 278 279 279 280 281 279 280 284
303 303 303 303 303 304 304 304 304 303 302 295 294 291 288 289 288 290 297 299 295 282 275 276 275 282 286 287 287 290 288 288 287 288 289 288 288 287 288 290 291 290 295 292 288 290 279 285 284 282 285 284 290 290 291 293 290 290 287 287 294 284 283 282 279 279 280 283 288 288 292 292 286 284 287 288 287 286 284 283 282 280 281 283 282 281 283
303 303 303 304 304 303 304 304 304 304 303 302 295 289 290 289 291 290 289 298 292 283 284 281 278 284 284 286 285 287 287 290 289 289 287 290 289 288 287 290 291 292 295 294 292 292 287 283 286 286 288 287 291 290 290 293 289 293 294 301 294 286 283 283 278 274 272 273 276 277 281 285 286 288 287 287 289 286 285 281 281 278 282 283 281 282 292
303 303 303 303 303 303 304 304 304 304 304 303 297 292 290 287 281 284 286 290 290 289 293 289 286 284 285 284 287 289 286 291 292 291 289 291 291 290 290 290 291 292 293 289 289 288 291 287 286 288 289 292 292 290 291 292 291 298 304 302 294 286 288 287 283 279 276 278 278 281 285 284 283 286 287 287 288 288 286 281 279 280 278 281 283 289 294
303 303 303 303 303 303 304 304 304 304 304 303 298 295 291 288 278 283 282 288 287 286 290 288 288 284 288 282 287 285 287 289 291 295 288 293 291 290 289 289 289 289 291 288 287 289 289 291 290 290 291 291 293 296 290 291 295 305 303 301 292 288 286 287 287 286 285 285 287 289 287 287 289 287 289 290 288 288 286 282 281 283 285 281 290 297 297
302 303 303 303 303 303 304 304 304 303 303 303 300 288 291 284 287 287 290 285 281 283 284 288 287 288 288 285 288 286 286 287 285 291 293 294 293 287 291 292 293 291 291 290 284 287 287 288 286 292 292 292 293 293 296 290 298 304 296 299 292 288 283 288 290 290 293 293 293 295 295 293 292 292 291 291 292 288 286 285 284 287 282 282 290 298 297
303 303 303 303 303 303 303 304 303 303 303 303 297 288 292 291 289 286 293 285 289 287 288 289 288 286 288 286 287 285 286 285 289 289 290 292 292 291 283 289 291 293 296 290 284 288 281 284 289 290 289 290 288 288 290 295 295 298 294 293 291 290 284 289 291 290 292 292 292 294 294 291 291 291 291 291 291 288 287 286 286 287 283 285 296 297 298
302 302 302 303 303 303 303 304 304 303 303 302 296 292 287 287 288 285 293 291 290 290 290 290 290 286 290 285 287 287 287 286 290 293 292 285 290 293 289 290 292 295 296 293 286 290 290 290 286 293 291 288 291 289 290 289 291 294 292 292 292 290 283 293 290 287 289 291 290 291 292 291 289 289 290 291 290 291 289 289 290 293 292 292 296 297 295
302 302 302 302 302 303 303 304 304 302 302 296 296 294 296 295 297 296 289 287 288 290 289 287 288 285 288 286 288 290 290 289 293 292 296 292 289 291 289 292 292 295 295 293 293 295 294 294 294 295 294 288 294 290 290 294 289 292 291 292 292 292 286 290 287 285 285 289 288 287 289 290 288 286 290 290 290 290 291 289 291 292 292 294 295 293 293
302 302 302 302 302 303 303 303 303 302 302 295 295 292 300 298 300 299 294 286 290 287 289 289 288 283 289 290 290 290 291 293 294 287 293 296 295 294 293 292 291 291 292 292 294 297 297 297 298 299 298 298 298 297 296 295 290 288 289 289 287 289 288 285 285 284 281 287 287 286 282 284 282 283 288 289 291 292 293 294 294 295 298 293 289 293 300
303 302 302 302 302 303 303 303 303 303 299 294 292 293 295 294 293 295 295 285 284 285 285 285 287 290 291 292 291 293 292 293 292 285 285 294 294 296 294 292 290 288 291 296 301 302 301 301 301 301 300 300 299 298 298 298 296 293 290 287 287 289 291 284 286 285 282 286 284 283 280 275 275 283 289 292 293 291 291 293 293 296 295 294 295 297 302
302 303 302 302 302 303 303 303 303 303 301 296 297 295 297 299 297 296 289 283 284 286 285 284 288 289 290 292 292 290 290 290 290 294 289 290 293 294 293 291 289 286 296 301 302 302 302 303 302 300 300 299 299 299 298 296 296 297 293 290 287 287 287 283 283 285 283 281 283 280 278 274 285 288 290 294 294 293 295 296 295 293 292 293 297 300 301
302 302 302 303 303 302 303 302 303 302 302 298 296 292 297 299 296 294 292 287 282 284 283 285 289 290 293 292 290 291 292 292 292 293 294 292 290 292 293 293 292 296 303 301 300 298 294 292 292 294 295 296 296 296 296 295 295 296 296 292 288 285 287 280 283 279 279 279 279 276 273 283 288 290 293 294 294 293 295 294 295 294 293 294 297 301 303
302 302 302 302 302 302 302 302 302 302 302 301 294 293 295 298 295 294 292 286 285 288 288 287 289 291 292 290 289 291 292 292 293 294 292 294 292 291 294 297 299 301 302 301 295 291 289 285 284 284 288 289 288 287 291 294 295 294 294 294 292 290 286 285 282 282 279 277 271 277 281 285 289 293 293 291 288 290 286 285 289 293 296 297 299 301 302
302 302 302 302 302 302 303 302 302 302 302 302 294 294 295 297 297 295 297 294 286 288 289 286 289 291 293 292 292 291 289 290 290 288 295 298 295 295 296 300 300 300 299 298 291 288 286 282 282 281 283 283 280 283 288 288 292 294 294 293 292 289 287 286 285 280 279 279 276 274 275 276 280 288 290 292 293 292 291 290 287 296 297 300 302 301 301
302 302 302 302 302 302 302 302 302 302 302 303 295 292 295 298 299 299 298 293 289 284 289 293 295 294 293 293 294 293 290 288 291 292 292 292 295 295 297 299 299 299 299 294 288 284 283 284 282 279 279 281 286 285 282 286 286 292 293 293 293 291 289 286 284 281 279 276 275 273 274 275 278 286 290 295 295 294 289 288 286 291 299 302 302 301 301
303 303 302 302 302 302 302 302 302 302 302 302 295 293 293 300 298 297 295 295 293 286 295 296 297 296 294 292 293 291 293 288 293 286 286 289 294 295 297 301 300 299 294 287 285 283 283 281 280 280 284 286 283 282 286 283 283 286 292 292 290 288 283 281 284 279 275 274 275 277 273 278 289 286 290 295 295 292 289 281 281 293 300 302 302 301 301
303 303 302 302 302 302 302 302 302 302 302 303 299 293 293 297 299 299 297 295 289 289 295 300 296 292 291 292 291 295 297 296 296 295 290 293 295 295 295 297 295 299 298 287 285 282 279 277 281 280 280 287 288 287 280 284 282 282 285 284 284 284 283 282 283 278 276 277 273 273 277 283 285 290 292 294 295 290 280 279 281 294 301 303 303 302 302
303 303 302 302 302 301 302 302 302 302 302 303 299 295 292 296 299 299 296 295 294 287 295 301 301 297 299 302 297 298 298 297 296 289 287 287 293 298 299 298 298 287 292 285 283 280 280 282 284 280 281 283 286 283 287 284 282 284 283 283 283 280 278 282 280 280 280 272 277 278 274 281 288 290 295 296 292 284 283 286 289 300 302 304 303 302 302
303 303 302 302 302 302 302 302 302 302 302 303 300 292 295 297 299 300 297 293 294 292 296 297 299 297 302 299 295 294 296 296 297 293 289 286 295 297 287 285 290 291 286 286 282 284 281 282 282 283 279 279 284 287 283 283 287 284 283 284 281 284 283 280 281 279 276 270 274 276 278 285 294 295 294 295 286 285 286 290 296 302 303 303 302 302 302
302 303 302 302 302 302 302 302 303 302 303 302 301 294 293 296 301 302 302 298 294 290 291 299 301 299 300 298 300 300 298 294 295 293 296 295 297 292 284 285 290 291 286 286 285 284 281 283 283 282 284 286 286 287 283 280 286 290 289 285 284 286 283 278 278 282 280 274 278 277 280 286 292 295 289 290 289 291 293 297 297 298 302 302 302 301 301
302 302 302 302 302 302 302 303 303 303 303 303 302 295 292 295 298 300 301 300 294 290 292 297 299 298 300 301 301 301 300 300 301 302 296 291 296 295 292 294 295 293 294 291 285 285 286 281 284 282 282 285 283 281 282 279 280 284 292 288 284 288 285 282 284 281 281 280 278 281 286 288 290 293 293 291 293 295 296 297 300 300 301 303 300 297 297
302 302 302 302 302 302 303 303 303 303 303 303 301 297 294 296 296 300 299 295 296 297 299 299 299 300 302 302 304 304 304 305 304 302 302 296 289 293 294 294 293 298 297 292 289 286 286 284 282 282 283 283 284 283 283 280 279 284 285 291 287 289 289 288 288 287 291 291 289 289 289 290 291 292 293 294 295 294 295 296 297 299 301 301 299 297 298
301 302 302 302 302 302 303 303 303 303 303 304 302 298 296 298 298 298 296 296 292 289 292 295 294 288 294 298 303 305 304 303 303 304 305 303 290 288 293 296 296 297 295 296 295 293 286 283 287 286 282 285 286 281 282 283 280 284 283 283 286 291 291 288 285 291 287 281 288 289 289 290 292 292 294 294 293 293 295 295 293 295 298 298 299 299 298
301 301 301 302 303 303 303 303 303 303 304 304 303 302 301 298 298 298 295 288 287 288 287 288 288 296 300 303 305 303 304 305 306 304 303 303 300 295 293 297 300 297 294 296 290 287 284 286 287 283 282 288 288 283 286 283 285 287 282 284 284 287 292 288 288 288 282 282 289 290 291 290 292 291 291 292 293 295 296 296 297 297 298 299 299 299 298
300 300 301 301 302 302 303 303 303 303 304 304 304 299 297 297 301 303 300 298 297 294 287 286 291 300 302 302 300 301 304 303 302 304 303 303 303 303 301 301 299 301 297 293 291 287 284 284 283 284 285 288 291 283 285 286 287 287 285 284 287 289 290 284 287 286 292 294 292 291 291 292 292 293 292 293 294 295 296 298 298 299 299 299 299 300 299
300 300 300 301 301 302 303 303 303 304 304 304 303 301 300 300 301 299 297 297 293 285 286 286 290 297 302 299 302 303 302 300 301 301 302 303 303 303 302 299 298 297 296 292 290 285 284 285 285 287 287 289 290 288 288 286 286 282 284 288 290 288 286 288 290 287 287 288 290 293 288 287 289 291 293 293 295 296 296 297 298 298 298 299 298 298 298
300 300 300 301 301 302 303 303 303 304 304 304 304 302 302 300 301 301 300 299 295 286 286 287 291 296 301 296 301 302 302 301 300 299 298 299 300 300 299 298 296 294 291 288 289 288 285 287 289 287 287 289 288 288 288 288 286 283 284 286 290 287 287 288 287 288 287 292 294 292 292 291 291 292 293 295 296 297 296 296 296 297 299 299 297 296 296
300 300 301 301 302 302 303 303 303 304 304 304 302 300 300 301 302 302 301 301 299 296 292 292 295 292 288 295 302 301 299 301 300 299 299 298 298 297 296 295 294 292 289 287 286 286 285 287 285 287 289 291 290 287 286 285 284 283 287 291 290 290 290 290 290 292 293 295 295 293 292 291 292 293 293 295 296 297 296 296 296 297 298 298 298 297 296
300 300 301 301 302 302 303 303 304 304 304 302 300 298 291 295 300 301 302 302 300 300 291 289 287 285 293 298 298 298 295 298 298 299 298 298 297 296 296 294 293 291 290 287 286 285 286 285 281 285 291 291 287 284 283 284 284 287 291 292 292 292 292 292 293 292 291 295 294 293 293 294 294 293 293 293 295 296 295 295 295 296 297 298 297 297 297
300 300 301 301 302 302 303 303 304 304 304 299 296 285 285 289 296 302 303 302 303 301 291 291 289 291 289 294 295 294 295 297 297 296 296 296 296 296 296 294 292 290 285 285 286 287 283 283 282 287 289 292 284 281 283 283 284 285 289 290 291 291 292 293 293 295 296 294 295 295 295 294 294 295 294 294 294 296 296 296 297 298 297 297 296 296 296
300 300 301 301 301 302 302 303 304 304 302 298 294 289 291 295 299 301 303 303 303 300 293 290 287 284 284 287 291 295 297 298 298 293 291 294 295 294 293 294 291 292 289 284 285 283 285 283 283 286 287 290 286 279 281 283 283 285 291 291 292 292 293 294 295 295 296 296 296 294 292 291 291 291 290 293 296 297 297 296 297 297 297 296 296 296 296
299 300 300 301 301 302 303 304 304 304 299 302 304 304 304 304 303 304 304 303 301 296 292 287 285 285 282 287 292 293 296 294 293 289 290 291 294 290 290 290 289 289 296 287 285 284 285 280 280 283 287 285 280 280 283 284 287 290 290 290 290 293 293 294 295 295 295 294 295 292 289 291 289 291 293 295 297 296 296 296 296 296 296 295 294 294 295
299 300 300 301 301 302 303 303 304 304 303 300 297 297 300 304 303 304 302 298 293 290 288 289 287 284 285 287 288 290 293 290 289 287 285 290 290 288 286 287 287 286 290 287 284 284 285 283 283 281 282 282 280 281 283 288 291 291 290 290 290 292 293 294 294 293 292 293 294 294 293 292 293 295 295 295 295 296 296 296 296 295 294 294 294 294 294
299 300 300 301 301 302 303 304 298 298 295 295 295 298 299 305 304 305 303 296 287 286 288 286 285 281 280 280 275 282 291 289 287 285 285 289 290 291 287 285 284 284 287 287 282 280 281 285 285 282 282 280 278 280 281 288 290 291 291 291 290 290 293 293 291 291 292 294 294 293 294 294 294 293 294 294 295 295 295 294 295 294 293 293 293 294 294
299 299 300 301 301 302 300 303 298 298 295 293 295 303 305 306 306 301 301 298 294 283 281 279 282 281 280 278 278 283 291 289 287 285 287 285 285 288 284 283 283 286 286 282 283 278 281 287 284 281 277 277 276 278 280 286 288 290 290 291 290 291 292 291 291 291 292 293 293 293 293 293 293 293 294 294 295 295 295 294 294 294 293 292 293 293 294
299 299 300 301 300 300 294 293 299 298 295 299 301 304 305 305 303 302 297 297 296 297 289 280 283 282 283 280 278 280 286 283 283 282 281 284 282 281 281 281 282 283 280 280 279 281 285 286 282 279 279 279 278 281 284 285 287 288 289 291 293 293 294 293 294 293 292 292 293 293 293 292 292 292 292 293 293 294 293 292 292 292 292 292 292 292 293
298 299 297 294 292 288 289 290 296 299 302 302 303 295 295 294 287 288 289 288 288 295 285 287 282 283 284 284 282 287 288 282 283 283 281 281 281 281 280 282 283 283 280 278 281 286 279 281 281 281 281 282 283 285 284 284 287 286 287 289 290 292 294 294 295 293 291 290 290 290 290 292 292 292 292 291 292 293 293 293 292 292 293 293 293 293 293
296 292 291 290 290 285 287 293 298 301 299 298 293 290 288 284 286 286 285 285 286 288 284 287 284 284 282 282 282 286 289 283 276 279 281 282 282 279 281 281 281 280 278 277 283 286 278 277 277 280 281 282 282 285 287 286 287 287 288 289 290 290 292 293 294 294 293 292 292 292 292 291 291 291 291 291 292 293 293 293 293 292 292 292 292 292 292
288 287 284 284 285 287 293 296 299 297 295 291 286 286 285 284 283 283 282 283 282 280 282 285 286 286 286 286 284 285 287 285 282 279 278 280 284 281 280 279 280 279 276 273 279 280 278 276 276 275 276 279 282 282 283 288 288 288 288 289 289 290 291 293 293 294 293 292 292 292 293 293 293 292 291 291 291 291 292 293 293 293 292 292 292 292 291
286 286 285 283 287 288 291 294 295 291 287 285 284 282 281 282 282 283 282 279 278 280 283 283 283 286 286 284 284 283 286 288 284 281 278 279 282 281 276 277 280 278 275 274 278 279 274 273 272 273 278 280 284 285 284 286 287 288 288 290 291 291 292 293 294 294 294 294 293 293 292 293 293 293 292 292 292 291 291 291 291 291 291 290 291 291 292
287 288 288 291 292 293 293 292 288 286 285 285 281 280 280 281 281 282 280 280 278 277 281 285 285 282 286 286 285 284 284 287 283 279 281 281 283 280 277 277 277 274 273 275 278 276 274 274 273 274 277 279 283 284 285 286 287 288 289 289 291 292 292 293 294 295 297 295 294 293 293 293 292 291 292 292 292 291 291 290 290 290 290 290 290 291 292
297 296 294 291 290 288 288 286 285 284 282 280 277 279 279 278 279 280 278 279 279 283 283 288 289 287 288 287 287 287 285 288 287 282 280 280 281 278 276 275 274 274 276 278 276 273 273 272 271 277 281 281 284 285 285 287 286 287 288 289 292 294 294 292 293 294 295 295 293 293 294 293 292 291 291 292 291 291 291 291 291 291 291 292 292 292 292
292 294 292 287 287 284 284 281 286 285 282 280 278 276 276 276 277 276 278 276 277 281 282 288 283 286 284 283 286 282 282 286 284 279 280 279 279 276 275 276 275 275 277 274 272 273 271 270 276 279 279 281 285 285 286 286 287 288 289 291 293 295 294 293 292 292 292 294 294 294 294 293 292 292 292 292 293 292 291 291 291 292 292 293 292 292 292
285 284 283 282 281 283 283 277 283 282 279 280 281 276 275 273 271 273 277 279 283 285 285 286 286 286 285 283 283 284 283 282 282 280 279 279 277 276 275 275 274 274 274 272 270 269 272 274 278 279 281 284 285 285 285 287 288 290 290 292 294 294 293 292 291 292 292 294 294 294 293 292 292 291 293 294 294 294 293 291 290 291 291 291 290 290 290
284 283 280 278 277 280 280 277 278 279 281 283 281 280 278 278 276 278 283 285 285 285 287 287 286 286 282 282 284 284 279 279 281 280 279 277 275 276 276 277 276 273 271 268 270 269 271 274 278 283 285 286 286 286 286 288 290 289 292 292 293 294 294 293 292 292 292 292 293 292 291 292 292 292 292 292 293 293 293 292 291 291 290 289 289 289 289
283 283 283 280 277 278 281 279 278 281 284 284 282 281 282 284 283 285 285 285 286 287 287 286 286 286 285 281 284 282 279 278 279 280 278 279 277 277 278 278 274 270 270 268 266 265 270 276 278 283 286 286 286 286 288 289 290 291 292 292 293 294 294 293 293 292 292 292 292 292 292 292 291 292 292 292 292 292 292 292 292 291 291 291 290 290 290
280 281 282 277 274 277 279 280 282 283 284 287 286 284 284 284 283 284 286 286 287 287 287 286 284 282 284 282 281 279 280 278 280 280 279 279 278 273 269 270 269 270 270 271 268 271 275 277 281 285 286 287 287 287 289 290 290 291 292 293 294 293 292 292 292 292 292 292 291 291 291 291 292 292 292 292 292 292 292 292 292 292 292 292 292 291 292
283 281 279 276 278 280 278 278 282 283 284 283 284 284 285 285 283 284 287 285 286 288 288 287 281 281 282 282 281 281 280 280 277 277 279 276 274 270 270 269 268 270 271 273 276 277 278 279 283 287 287 287 287 289 289 290 291 291 292 292 292 292 292 291 290 291 292 293 292 291 291 291 292 292 292 292 291 291 292 292 292 292 292 292 292 292 292
282 279 282 280 279 279 280 280 283 281 282 283 284 284 284 283 284 286 286 287 288 287 286 286 284 284 282 282 279 277 278 278 278 278 274 274 271 272 271 269 268 271 270 274 276 278 280 283 287 287 287 288 288 289 290 289 289 291 291 291 290 289 289 289 288 289 290 289 290 291 291 291 291 292 292 292 292 292 292 291 291 291 291 292 292 292 291
282 282 279 279 280 277 280 276 277 277 281 282 283 284 283 284 284 286 287 288 288 283 280 282 281 280 280 277 275 276 278 280 278 277 275 273 274 273 271 272 270 273 277 278 281 282 285 287 288 288 288 288 288 289 290 290 290 290 290 289 289 289 288 288 288 288 288 289 289 288 291 290 291 292 293 293 293 292 291 290 290 291 290 290 291 291 291
279 278 277 277 279 280 281 281 281 281 282 284 283 284 285 284 285 287 288 287 284 282 281 279 281 279 276 276 276 278 281 278 276 275 276 276 275 273 272 271 275 279 280 281 283 284 285 287 288 289 289 289 289 289 290 289 290 289 289 289 289 289 288 288 288 288 288 289 289 289 290 290 291 292 293 293 292 291 290 290 290 290 290 290 291 291 292
Wind_Speed
17 17 17 16 16 16 15 16 15 13 12 3 5 2 2 5 1 2 3 3 2 1 2 1 1 1 2 5 6 5 6 6 7 7 5 5 6 5 6 4 1 4 3 1 1 3 2 6 5 3 5 4 10 5 11 8 10 9 3 3 3 4 1 0 3 4 5 6 5 0 5 7 3 1 4 7 5 7 8 4 5 6 3 2 0 1 3
17 17 17 16 16 16 15 16 16 13 9 2 2 4 3 3 3 2 1 3 4 1 1 1 1 3 5 3 7 6 6 4 5 6 6 3 4 3 3 5 5 1 1 1 0 1 2 4 6 4 4 4 9 7 9 10 5 9 6 8 5 4 2 3 1 1 1 2 2 3 1 1 3 4 3 4 4 5 3 6 1 3 5 7 8 5 3
17 17 16 16 16 16 16 16 16 14 9 5 1 2 2 0 1 1 3 3 3 0 0 2 0 3 4 5 6 5 4 6 10 9 8 7 10 5 5 4 5 2 0 0 1 1 4 2 8 2 2 3 3 11 9 12 6 6 5 7 6 5 3 4 2 5 5 6 8 5 5 9 2 1 4 4 8 6 4 1 1 2 1 4 3 3 4
17 17 17 17 17 17 17 15 15 13 8 6 1 2 1 1 3 2 2 2 3 1 3 2 2 3 5 3 4 2 3 4 9 12 15 15 12 10 9 10 5 2 6 5 3 3 1 1 3 4 1 1 1 6 13 13 7 9 11 9 9 3 2 3 6 6 6 8 6 4 4 2 3 2 6 5 5 7 6 6 5 6 3 3 5 7 8
17 17 17 17 17 16 17 16 15 14 11 4 1 1 1 1 2 1 2 3 2 5 3 5 4 3 4 4 3 2 5 6 8 10 6 8 10 5 8 3 0 4 5 2 2 2 4 6 4 1 1 2 1 5 12 11 14 14 10 10 6 4 4 3 6 4 6 5 5 4 5 7 0 4 1 1 6 7 8 6 6 5 9 4 0 8 15
17 17 17 17 17 17 18 17 17 15 11 9 1 2 1 2 1 1 1 0 2 1 6 5 7 8 3 3 2 5 7 5 4 6 11 11 3 3 4 6 3 3 3 1 1 4 2 1 1 3 2 1 3 4 3 6 9 15 6 9 5 5 6 2 3 4 4 4 1 7 8 4 4 5 3 3 1 6 8 7 4 8 5 8 7 11 12
16 16 17 17 17 18 18 18 18 17 11 4 1 2 1 0 1 1 1 1 2 5 3 3 5 5 5 3 3 6 6 9 6 4 5 3 5 3 2 2 5 6 3 5 1 1 1 4 2 2 2 1 2 4 4 2 2 10 4 7 2 6 3 2 3 3 5 7 5 4 13 4 6 6 4 2 2 3 4 3 4 7 3 5 12 11 5
17 17 16 16 16 17 17 17 17 17 12 1 2 1 1 3 2 1 1 3 4 5 3 4 5 6 6 4 5 4 5 8 6 5 3 3 4 5 6 1 1 3 6 5 2 1 0 0 1 2 1 3 6 1 2 2 4 3 5 5 1 5 3 6 3 4 2 5 6 4 8 8 7 4 5 5 4 6 4 3 3 7 6 4 11 10 3
16 16 16 16 16 16 16 16 16 17 13 1 3 1 1 2 2 2 2 4 2 4 5 4 3 2 2 2 5 3 5 4 6 2 4 3 2 3 1 0 1 4 4 2 2 2 3 3 4 4 1 2 1 3 3 1 1 3 4 3 0 3 0 2 4 5 0 2 2 3 9 11 8 4 5 5 3 4 1 2 2 6 8 11 11 6 4
15 15 16 16 16 15 15 15 15 13 11 2 3 3 2 3 2 2 2 2 3 3 4 3 3 0 3 2 2 2 5 6 7 2 2 1 2 1 0 1 4 2 3 1 3 3 4 7 6 3 6 0 6 2 2 2 3 3 2 1 5 5 6 4 4 6 3 2 1 2 2 4 3 2 1 0 2 1 2 1 1 3 16 12 9 11 8
16 16 16 16 16 15 14 15 14 12 7 6 5 4 3 3 4 3 2 2 3 3 4 3 2 1 4 3 6 4 5 6 5 0 1 3 4 3 1 2 5 3 3 1 2 3 8 6 6 4 2 6 8 4 1 4 7 1 6 3 1 5 12 3 1 6 3 2 3 1 1 2 4 2 2 3 3 4 3 1 1 6 4 6 3 4 12
15 16 17 16 16 15 15 14 13 12 6 1 2 4 3 3 5 3 1 3 4 2 2 1 2 4 5 9 4 2 3 5 4 1 1 2 4 4 2 2 4 1 2 2 3 5 4 2 1 2 3 8 9 9 11 13 11 6 1 8 6 7 7 5 3 7 5 1 1 2 7 6 2 3 3 4 3 4 4 4 2 1 1 2 6 12 17
16 16 17 17 16 16 14 14 14 13 10 3 2 4 3 4 4 3 1 1 3 4 5 4 4 6 7 5 5 4 4 5 4 5 3 1 3 3 1 0 1 1 2 3 4 2 2 1 2 0 3 6 7 9 14 12 12 11 8 4 10 8 9 5 4 3 2 2 1 5 3 3 3 2 0 2 4 1 6 4 1 1 1 6 7 8 10
17 16 16 16 16 16 15 14 14 13 13 7 4 4 4 4 3 3 1 1 4 2 3 6 4 7 9 6 4 5 3 4 4 1 2 1 1 3 3 1 1 2 1 1 3 2 3 3 2 2 1 3 1 3 5 4 5 11 11 9 6 10 6 6 4 1 5 3 2 3 2 2 1 1 1 5 4 5 3 5 5 2 0 5 10 10 11
17 16 16 16 16 15 15 14 14 14 14 10 3 4 4 3 2 3 3 2 3 5 2 2 5 7 6 5 3 5 3 4 5 4 2 2 0 2 1 1 2 2 1 0 2 4 2 3 2 2 1 3 2 1 2 2 5 5 5 3 6 1 6 4 7 1 4 5 3 2 1 2 5 7 2 1 1 3 3 6 1 3 2 5 14 14 13
16 16 16 15 16 15 15 15 14 14 14 12 2 3 6 3 3 3 3 3 2 4 1 1 3 4 6 5 5 4 4 4 4 3 4 3 1 4 2 0 1 0 2 3 1 3 1 2 2 3 2 3 0 2 0 2 3 5 5 4 10 9 9 6 7 4 3 3 5 3 4 4 4 5 2 1 3 5 3 3 4 3 7 9 15 16 16
17 16 15 15 15 15 15 15 14 14 15 12 5 4 4 1 3 2 3 3 2 5 5 5 2 2 3 4 4 3 3 2 4 3 4 5 4 2 6 1 1 3 1 2 3 2 2 3 1 2 0 1 2 3 2 2 2 2 4 5 10 8 5 4 6 3 1 5 3 2 3 1 0 4 1 2 4 3 2 1 6 9 11 13 16 19 18
18 16 15 15 15 15 15 15 14 15 14 12 5 4 5 1 2 2 2 3 3 4 3 1 3 3 2 1 2 4 2 3 3 1 1 3 2 2 3 2 2 1 1 1 0 4 2 2 2 2 2 2 0 1 3 4 4 3 2 1 1 2 2 4 6 5 2 5 0 2 4 4 3 2 4 2 2 3 3 7 3 7 13 14 15 17 17
18 17 15 15 15 15 15 15 15 15 15 13 7 4 2 2 2 2 2 3 2 4 6 2 3 6 3 2 4 3 2 2 2 2 5 5 1 6 4 2 0 1 4 2 3 2 2 1 0 2 3 1 1 2 1 3 3 0 2 3 2 1 3 1 3 4 4 3 5 5 3 5 5 1 2 2 3 3 7 6 1 9 10 11 14 17 17
19 18 16 15 15 15 15 15 15 15 14 13 6 2 8 5 4 2 3 3 2 5 10 7 2 4 1 2 3 3 4 4 1 2 0 3 3 7 2 2 2 2 1 2 2 1 2 2 1 1 1 1 1 2 3 2 1 3 2 1 3 7 5 4 4 2 4 3 3 2 2 1 5 6 2 1 3 5 4 0 1 6 9 11 11 13 13
20 19 17 16 15 15 15 15 15 15 13 12 8 3 6 1 1 3 3 3 4 6 7 3 3 8 5 6 7 6 3 8 4 2 3 4 4 1 2 0 2 0 1 1 1 1 2 0 1 1 1 4 1 1 5 2 1 1 1 3 1 1 3 1 1 4 6 3 4 4 3 3 3 6 7 4 4 2 4 4 6 3 7 8 8 7 9
20 19 18 17 16 15 16 16 16 15 13 12 7 1 4 3 1 2 3 2 3 5 7 7 2 10 11 11 11 11 13 13 14 9 5 5 2 2 2 2 2 2 1 2 2 1 1 1 1 1 1 0 1 1 1 3 3 1 0 3 1 1 1 4 5 2 3 4 4 1 2 3 2 0 1 1 2 0 1 1 8 10 6 6 8 7 8
20 19 19 18 17 17 17 16 16 15 13 11 6 3 5 6 5 2 3 3 3 5 5 8 6 9 9 11 14 15 15 14 10 6 8 3 5 1 4 2 3 2 0 2 1 3 2 4 1 4 2 0 6 2 3 1 2 1 2 1 1 2 0 0 6 1 1 0 2 1 2 2 3 3 2 1 2 4 4 4 5 1 6 8 11 9 11
20 20 19 19 18 18 17 17 16 15 14 11 7 4 5 4 5 4 2 1 1 6 5 1 4 4 2 6 6 3 7 6 12 15 8 7 2 5 2 4 1 1 0 2 2 1 2 2 1 2 2 2 3 3 3 0 0 2 2 1 2 1 0 1 3 0 2 1 2 3 1 1 3 3 3 4 3 1 2 7 3 4 5 7 8 11 12
21 20 20 19 18 19 19 19 18 17 15 14 10 5 5 5 2 3 1 2 3 2 2 7 5 10 4 6 10 7 6 7 4 8 10 11 12 6 5 3 1 3 3 1 1 4 2 2 0 1 3 1 3 0 1 4 1 1 2 1 1 0 2 5 1 3 2 1 0 1 1 2 2 2 2 3 4 5 5 4 6 7 7 7 8 10 11
21 21 20 20 21 21 21 20 19 17 16 16 11 5 4 5 1 1 2 3 2 2 2 4 9 7 4 9 3 3 5 5 3 12 13 16 15 14 10 8 6 2 1 2 3 5 3 4 3 1 4 0 1 2 1 2 4 1 4 1 2 1 2 2 2 3 1 2 2 2 3 5 4 3 3 2 4 7 6 7 8 10 13 10 7 6 11
22 21 21 20 21 21 22 21 20 18 17 15 9 5 6 5 4 5 4 2 0 1 1 4 6 10 9 12 7 4 5 5 1 7 7 9 10 9 7 4 3 2 3 2 3 4 3 3 4 2 1 1 2 2 1 1 2 2 2 1 3 1 1 1 4 4 2 5 6 6 5 2 1 1 1 3 3 6 7 8 7 9 12 11 12 7 4
22 22 22 21 21 22 22 21 20 17 16 16 9 6 5 6 5 7 6 4 1 1 2 4 6 11 11 7 5 6 8 3 3 5 4 3 3 2 3 6 5 3 4 2 2 5 4 5 2 0 0 0 3 2 1 1 3 4 3 1 0 0 2 5 6 7 6 3 5 2 4 4 1 3 3 3 3 8 10 9 8 5 8 12 14 13 11
23 23 22 22 21 21 21 20 19 17 16 13 6 7 5 7 6 6 7 5 2 1 3 5 6 3 3 7 10 10 4 3 4 5 5 7 7 6 4 5 4 1 2 4 4 3 4 1 1 2 1 1 3 1 2 3 3 1 2 3 2 3 2 3 3 3 1 2 6 4 3 6 3 3 3 3 2 7 7 4 5 8 9 9 13 15 16
24 24 24 22 22 21 21 19 18 14 13 5 4 2 2 1 2 5 6 5 4 1 2 3 5 4 3 3 5 4 4 4 5 6 7 6 6 6 5 4 4 3 4 2 2 3 0 1 1 1 3 2 2 1 3 1 1 2 2 4 4 4 3 5 3 1 2 1 4 3 7 8 6 4 3 3 2 5 8 6 7 7 7 10 12 10 11
26 26 25 24 22 20 19 19 16 12 8 2 0 2 2 1 0 4 7 6 5 2 1 1 4 5 6 3 2 6 6 4 3 4 3 2 1 2 2 2 3 3 4 4 4 0 1 4 2 4 2 5 3 3 2 2 1 2 4 5 5 5 2 2 1 1 8 9 9 7 8 8 6 7 6 4 4 6 6 4 6 9 11 10 12 14 10
25 27 26 26 24 22 18 17 15 11 4 4 4 2 1 1 1 4 8 7 5 1 1 3 4 4 2 5 4 2 1 1 1 2 2 3 3 3 5 6 2 2 3 3 1 2 3 1 1 3 3 4 5 3 3 3 2 1 4 6 5 3 2 4 6 6 7 12 14 11 8 4 2 4 5 3 5 5 9 8 8 9 11 9 9 10 12
25 26 27 25 26 24 20 15 11 7 5 7 10 14 13 10 2 5 7 5 1 1 2 1 1 1 1 5 5 4 2 2 4 5 1 2 1 2 3 4 3 4 3 5 4 2 1 1 0 3 3 2 3 1 3 2 0 2 3 3 3 3 5 5 6 5 6 3 3 8 8 7 3 3 6 6 7 9 9 10 9 10 11 12 11 11 10
27 27 27 26 25 24 20 18 9 5 3 1 2 3 4 7 8 9 5 1 1 0 1 0 1 2 5 5 2 3 2 1 1 1 1 3 0 2 1 2 4 3 5 3 1 2 2 3 4 2 4 5 2 3 2 0 2 2 2 3 3 4 5 6 5 5 3 3 5 5 8 6 6 7 8 8 8 7 8 9 10 11 10 11 10 10 11
27 28 27 26 25 21 19 10 3 1 3 3 2 3 3 6 9 13 11 4 2 0 0 1 1 1 4 5 2 4 0 2 0 1 2 2 2 2 1 3 4 5 2 3 4 2 1 1 1 2 1 3 3 1 2 4 2 1 1 4 3 4 6 6 4 2 5 6 8 9 9 9 10 8 8 8 8 8 10 8 9 11 10 9 10 9 10
28 28 27 25 24 14 2 1 1 2 0 1 1 2 11 15 2 7 9 2 1 1 1 2 1 2 2 1 1 2 1 1 1 1 0 1 3 2 3 2 3 1 0 4 0 2 1 2 1 0 2 2 2 3 3 4 4 2 2 2 0 1 1 3 5 4 5 6 9 9 9 7 9 7 7 8 8 7 9 9 7 9 11 10 9 9 8
27 27 26 20 6 2 1 1 0 2 0 4 13 15 12 3 5 4 2 3 2 0 1 1 1 5 5 3 1 5 3 1 3 2 4 3 0 2 3 2 1 2 3 4 3 2 1 2 5 2 2 3 2 3 5 3 5 5 3 3 2 2 5 4 6 8 9 8 10 8 8 8 6 5 7 7 6 7 8 9 9 10 12 12 10 9 9
27 22 5 2 1 1 1 1 0 7 16 17 8 2 1 2 2 1 1 1 3 1 1 1 4 3 0 0 2 2 1 1 2 0 0 0 1 0 0 2 0 1 1 0 1 2 2 5 3 1 3 3 4 5 4 3 5 2 4 4 3 3 4 5 7 10 10 8 5 5 5 7 8 6 7 7 7 7 6 5 4 5 6 8 8 9 9
14 4 4 3 1 1 1 1 8 19 12 5 1 0 1 0 1 0 1 1 1 1 2 2 5 2 3 1 4 2 1 1 2 3 1 1 1 1 2 1 2 3 1 1 0 2 1 2 3 3 4 3 2 1 1 1 1 2 3 4 5 4 4 4 3 11 14 12 13 12 12 11 11 8 6 7 5 5 6 6 7 6 7 6 6 6 8
6 8 4 4 1 3 5 7 14 10 2 1 2 2 0 1 1 2 0 0 1 1 1 2 4 4 5 4 3 1 1 1 1 1 1 1 0 1 1 1 1 1 0 0 2 2 1 1 1 2 5 3 4 3 1 1 3 4 4 4 3 4 3 5 3 3 3 5 6 5 6 9 9 11 9 8 8 7 6 6 7 8 8 8 7 8 8
4 3 3 1 4 4 7 10 7 1 1 0 1 1 1 1 1 0 0 0 0 2 2 2 2 0 0 1 2 1 3 2 1 3 3 1 1 2 2 0 1 1 1 1 2 2 2 2 1 2 6 4 5 4 2 1 3 3 3 3 4 3 3 4 4 4 5 7 6 5 4 6 7 10 10 10 10 9 8 8 7 7 8 8 9 7 5
4 4 5 6 7 8 7 3 0 0 1 0 2 1 0 1 0 1 1 1 1 1 2 1 1 1 1 1 2 2 1 0 2 2 1 0 0 1 0 1 2 1 1 2 1 2 2 0 3 5 7 6 4 3 4 4 2 3 3 3 5 4 3 4 5 4 5 5 5 6 5 5 5 4 7 9 8 9 8 7 7 7 8 6 6 6 6
14 9 2 3 2 1 0 1 1 1 1 1 2 1 1 0 1 1 2 1 1 1 4 1 1 1 2 2 1 0 1 0 0 1 1 1 1 2 2 1 1 1 1 0 1 1 1 1 3 8 6 4 4 5 4 4 4 3 3 4 5 5 5 5 6 5 5 7 6 5 6 6 5 4 4 6 7 6 5 5 8 7 6 8 7 7 7
2 1 1 0 1 2 1 1 1 1 1 0 2 1 0 1 2 1 0 1 1 0 1 4 5 4 5 2 0 1 1 1 3 2 1 0 1 0 1 0 1 2 0 1 1 1 3 3 8 5 2 2 3 4 5 3 3 3 2 3 4 4 5 5 4 6 4 4 6 6 6 6 7 6 5 5 9 10 7 6 5 7 6 6 6 6 6
1 1 1 1 0 1 1 2 1 1 2 2 2 2 3 3 3 1 2 3 2 3 1 0 0 2 5 5 2 1 1 1 1 1 1 0 1 0 1 1 1 1 0 1 1 2 1 4 5 2 3 5 6 5 4 4 4 5 5 3 4 5 6 6 4 5 5 6 6 7 7 6 7 6 6 6 5 7 10 7 5 7 6 6 6 6 5
2 0 1 2 1 1 1 1 0 0 2 2 2 6 4 5 3 3 4 0 1 6 7 6 1 0 3 3 2 2 0 2 1 0 0 2 1 1 1 0 1 0 1 1 0 2 5 6 5 7 7 7 7 5 4 4 4 3 5 5 5 5 5 6 5 5 6 6 5 6 6 5 7 7 6 5 7 6 7 8 8 8 7 7 7 7 4
0 0 0 0 0 2 1 1 2 2 1 1 3 5 4 4 5 5 3 1 2 5 4 2 3 4 2 1 0 2 1 1 1 1 1 1 1 0 1 1 1 0 1 1 3 4 5 7 6 5 6 6 5 5 5 4 4 4 5 5 6 5 6 6 6 7 6 7 6 6 6 6 7 7 7 6 5 6 8 8 8 9 10 9 7 8 7
0 1 0 1 3 1 2 3 1 4 2 1 1 2 2 1 2 5 6 2 4 4 5 5 7 1 0 1 2 2 1 0 1 1 0 1 1 2 1 1 1 1 2 2 4 5 5 5 5 6 7 6 7 7 5 5 5 6 5 6 6 6 6 7 6 7 8 8 7 7 6 7 8 8 8 8 7 6 7 8 8 8 8 9 8 8 9
0 0 0 1 1 0 2 3 4 4 4 4 4 3 6 7 3 4 5 3 5 7 6 3 3 1 1 0 1 1 0 0 1 2 0 1 1 1 1 1 0 1 4 6 6 5 5 5 4 5 7 7 6 6 5 5 6 6 6 7 6 7 7 6 6 6 6 7 7 8 7 7 8 8 8 8 8 5 6 8 8 7 8 10 9 8 8
0 1 0 0 2 3 4 1 0 4 5 5 4 5 5 4 7 5 3 7 7 7 6 0 2 1 2 1 0 1 1 1 1 0 1 0 1 1 1 1 3 3 3 3 4 6 5 3 6 7 7 7 7 7 6 5 6 6 5 6 5 5 6 6 6 5 5 5 6 7 8 7 8 9 9 8 7 6 5 6 7 7 6 7 9 9 8
0 0 2 2 3 2 4 3 1 3 7 5 5 5 4 4 4 7 5 4 7 5 4 2 2 1 1 1 2 0 1 1 2 1 2 2 1 2 2 2 4 6 8 6 5 4 4 6 7 7 6 7 6 6 6 6 6 5 5 5 5 5 5 5 7 6 5 5 6 8 9 7 7 8 7 8 9 8 6 4 5 7 7 6 7 9 8
0 0 1 3 1 0 2 3 2 5 6 5 2 2 3 4 5 5 4 5 4 6 3 2 1 1 1 2 3 1 0 2 0 0 0 2 2 2 3 5 6 7 7 6 4 3 4 5 6 8 9 9 8 6 6 5 6 5 6 6 6 6 5 5 5 6 6 5 6 6 6 6 6 6 7 9 9 8 8 6 4 6 7 6 6 7 8
Wind_Direction
0 0 359 360 0 4 3 6 6 3 358 22 328 299 13 16 54 259 10 351 122 106 41 319 22 354 266 310 280 296 275 268 286 290 290 296 247 246 222 239 200 241 203 191 249 135 159 168 198 179 180 229 207 218 178 159 155 152 177 117 249 133 199 98 299 290 297 304 295 230 171 115 96 17 94 128 171 173 163 162 185 137 150 90 17 128 253
2 1 5 3 4 4 2 4 5 5 12 348 305 40 48 10 30 350 313 4 78 79 131 285 313 291 307 302 283 264 255 255 270 259 262 240 296 288 314 304 208 282 93 107 214 227 77 207 174 228 199 230 216 197 178 171 179 154 206 174 198 161 270 121 356 36 345 342 34 61 49 205 153 173 199 169 121 87 148 108 180 98 221 170 135 215 256
1 1 3 2 360 1 2 3 358 360 7 355 81 65 316 126 260 336 311 354 63 141 91 89 163 262 277 288 271 258 236 237 247 256 262 224 245 277 255 227 339 345 7 300 237 256 165 158 209 163 198 246 190 201 182 190 189 182 183 166 154 165 201 127 174 157 162 192 183 198 188 201 231 139 146 162 133 134 107 126 88 116 259 122 136 208 262
360 1 1 359 360 359 1 360 357 2 9 350 4 136 138 328 105 340 351 1 21 335 122 273 296 293 295 268 264 266 272 277 249 236 259 242 237 237 271 298 269 35 25 21 7 339 324 130 179 177 260 297 232 186 194 184 190 191 166 159 138 164 138 135 151 160 180 207 213 245 131 88 134 181 145 196 157 148 113 113 97 182 199 158 224 168 154
359 356 357 359 356 357 1 358 359 5 359 2 17 6 53 230 86 146 166 0 316 282 315 291 303 278 335 314 341 277 239 269 292 226 239 244 199 216 206 245 55 24 56 351 336 330 327 355 63 25 180 252 248 277 186 190 189 177 169 163 116 101 179 194 157 185 205 194 221 211 159 138 285 116 87 159 150 147 132 144 210 168 108 235 266 168 150
355 355 355 357 356 357 359 1 357 3 352 341 306 25 306 68 325 37 259 180 202 243 276 232 248 256 271 265 288 271 300 288 273 287 242 265 232 188 12 44 71 116 160 175 39 327 329 347 23 332 5 348 308 42 359 170 198 178 178 168 156 144 173 230 121 13 4 322 43 116 87 76 123 101 102 81 54 150 151 192 174 135 151 202 192 178 170
359 357 355 355 355 353 356 2 359 356 355 311 33 65 312 85 193 215 285 49 226 207 245 225 220 247 210 259 251 277 267 282 266 266 307 350 7 48 100 12 17 28 32 99 303 307 63 348 333 61 359 315 35 39 1 54 335 181 149 170 174 133 186 151 111 68 7 342 352 63 104 135 62 44 33 26 76 172 136 117 172 146 156 188 151 182 179
355 355 353 353 353 353 355 1 4 354 351 256 21 71 83 21 329 326 309 246 268 276 283 268 245 244 237 236 238 247 279 288 321 296 10 349 3 17 78 98 31 33 32 73 158 301 159 172 352 337 76 310 50 94 190 260 334 157 163 169 273 138 243 135 104 76 332 342 343 41 83 89 82 22 33 54 61 66 44 95 108 85 53 110 130 147 177
354 355 353 353 353 354 357 3 9 1 353 78 350 333 175 312 259 258 268 280 245 231 216 228 210 202 267 230 286 282 290 305 341 313 305 40 53 7 51 327 73 17 43 101 249 228 248 247 243 277 272 96 161 93 300 187 137 97 129 152 118 109 180 33 85 97 312 313 27 29 79 78 82 43 29 28 58 87 343 99 216 123 140 125 119 126 189
355 355 355 355 356 356 359 5 10 13 2 45 340 324 4 303 231 227 255 288 280 340 301 253 125 265 227 236 288 281 293 295 331 304 267 77 108 56 147 198 104 10 342 345 318 284 266 273 275 290 275 319 70 63 278 295 173 150 101 346 121 123 127 125 116 122 234 251 283 248 76 78 53 358 284 229 356 63 98 346 113 193 137 119 138 214 176
353 355 354 355 357 359 1 6 9 18 23 28 354 307 328 340 337 322 303 271 308 337 338 355 63 75 319 316 311 279 264 303 332 130 277 2 331 3 57 107 115 177 232 249 259 275 265 269 291 332 35 82 73 30 286 13 51 80 145 86 70 124 131 162 122 167 239 274 328 2 58 209 228 235 164 155 172 184 132 145 157 135 113 183 193 138 122
349 349 352 355 356 357 360 4 6 12 33 86 287 285 274 303 298 265 356 15 282 310 25 317 357 305 333 316 316 278 298 317 303 291 261 284 271 309 37 43 87 99 251 255 332 290 273 284 283 294 352 43 44 19 31 33 4 11 305 128 129 113 106 126 129 116 196 279 35 131 218 230 239 266 243 196 210 202 133 104 57 4 57 108 116 142 155
350 347 349 352 354 354 354 357 359 0 2 19 5 305 303 306 280 300 331 319 283 327 353 319 315 300 297 303 326 299 286 274 270 256 236 228 305 335 293 96 149 228 310 317 347 12 98 129 12 34 21 27 354 1 16 11 7 360 26 65 117 130 114 155 51 94 60 58 90 190 236 239 289 278 260 176 132 201 100 60 343 344 220 155 134 147 141
352 349 348 348 348 348 349 351 350 353 353 359 344 292 290 309 336 314 357 3 306 250 237 285 289 342 341 332 310 307 329 330 309 287 360 252 256 278 292 229 226 265 326 93 55 76 65 44 58 33 359 23 15 22 308 306 29 22 3 12 69 121 108 105 92 355 146 167 125 212 338 328 340 336 219 178 177 192 158 157 234 267 231 143 135 136 135
348 348 347 345 344 342 342 344 346 348 348 352 325 298 298 287 263 298 298 275 296 293 257 310 334 320 325 310 340 337 342 315 3 330 290 291 304 239 227 254 328 321 74 69 359 36 135 100 78 89 341 77 121 216 308 4 311 23 19 16 71 113 124 204 110 267 123 130 49 9 23 253 267 228 277 219 178 142 163 104 294 275 256 172 140 148 143
344 346 344 344 341 341 338 338 341 343 344 347 348 302 299 263 266 264 300 305 289 308 263 338 305 298 324 319 319 321 331 318 322 300 342 338 316 333 323 289 290 69 47 71 91 94 74 110 189 100 169 165 217 105 311 339 350 321 14 7 67 41 70 102 108 142 71 59 125 196 157 239 209 234 241 175 172 145 153 70 269 229 174 171 150 149 154
342 342 344 342 342 338 336 335 336 340 341 347 332 324 294 341 1 339 318 296 245 245 280 309 281 263 302 314 354 350 331 316 341 30 347 335 318 306 298 313 333 49 81 77 7 66 45 54 89 121 53 160 124 177 100 59 95 345 330 14 45 43 7 31 58 83 158 141 108 204 195 187 120 226 253 213 173 121 68 170 268 208 178 172 158 156 157
341 343 344 343 340 337 333 332 333 338 339 340 335 310 277 283 256 287 279 293 301 281 270 260 21 334 277 290 296 277 296 310 351 318 231 269 294 326 303 347 337 327 107 88 50 66 76 113 134 146 164 253 180 86 166 171 143 193 163 84 81 32 23 47 157 148 143 97 318 337 309 272 253 237 231 232 163 80 98 191 244 195 170 171 164 157 156
342 343 344 342 338 334 331 331 334 336 338 340 341 307 270 229 280 284 247 279 305 286 261 280 246 245 258 265 248 258 265 271 288 312 319 343 8 314 279 261 180 322 357 124 61 97 114 310 70 122 124 325 22 161 137 118 193 102 109 76 62 357 90 3 86 104 153 189 127 209 239 241 185 244 187 184 110 156 206 235 230 152 165 163 162 155 158
339 341 342 340 335 331 329 332 335 335 334 338 355 289 274 299 265 240 332 315 292 276 291 285 210 242 247 264 309 312 331 322 244 226 254 286 289 341 35 16 321 80 352 68 39 187 99 182 195 111 56 165 237 169 49 294 325 163 180 206 133 196 132 187 159 152 55 41 71 38 220 235 158 128 55 90 135 230 214 211 39 147 152 155 163 157 155
336 339 341 337 334 329 329 331 333 333 333 333 347 348 322 287 32 23 1 323 308 308 299 273 200 228 212 232 227 239 244 250 261 296 249 230 265 65 72 193 251 53 235 134 138 240 155 142 233 134 211 132 241 49 181 172 353 256 134 181 150 220 94 225 254 178 149 147 155 198 217 214 225 156 176 221 191 188 178 142 107 106 140 146 146 150 148
334 338 338 337 333 329 328 328 329 331 332 329 336 77 276 265 327 334 299 242 249 223 240 268 285 282 268 254 250 238 234 229 235 218 245 285 269 196 247 271 250 175 216 120 35 25 23 174 59 83 145 102 29 116 163 93 183 268 58 106 122 235 191 179 166 222 128 188 212 249 262 233 277 53 238 259 302 126 159 111 148 145 154 136 133 136 125
332 335 339 336 333 328 326 324 323 327 328 326 323 205 256 301 299 304 306 279 275 273 275 283 292 275 274 262 239 229 230 227 229 216 209 192 302 258 201 211 284 210 219 134 207 163 197 125 192 158 98 180 149 108 31 115 187 270 132 310 183 329 350 162 90 180 230 248 209 237 357 6 350 19 27 69 42 60 75 96 118 95 136 151 148 143 138
332 334 335 335 333 328 325 321 318 319 322 319 312 270 278 247 271 323 298 216 263 298 298 305 4 320 318 319 306 197 204 215 211 217 197 170 199 294 313 237 243 20 290 242 174 145 203 119 185 134 114 216 88 95 132 91 261 195 79 338 340 289 165 64 94 138 76 283 340 43 4 349 24 49 39 45 34 31 130 105 96 119 113 112 133 141 145
331 331 331 329 327 323 321 321 318 318 315 315 309 275 271 282 249 206 275 13 334 58 307 308 267 236 265 273 272 277 226 216 196 187 183 202 212 219 251 247 186 256 275 263 50 63 47 110 95 60 112 237 108 203 231 108 272 136 76 266 35 317 142 68 44 90 124 230 117 85 49 72 37 44 77 74 54 53 48 79 107 106 99 111 131 131 133
328 327 326 323 322 321 320 320 317 313 312 309 307 286 269 260 223 123 260 298 250 296 318 312 284 298 311 337 326 255 277 280 209 162 184 197 208 221 247 315 333 20 111 75 84 119 118 58 86 119 111 255 90 136 166 206 158 100 122 200 205 254 8 170 171 115 108 57 82 131 83 43 25 34 47 88 122 108 91 92 103 115 115 115 114 135 146
324 324 322 321 319 318 318 316 314 311 309 306 300 259 254 256 201 206 207 205 20 347 8 274 280 301 349 322 280 319 314 334 69 137 185 205 220 236 241 247 251 1 42 35 42 116 72 96 93 49 118 170 104 114 130 10 72 89 74 302 337 65 90 196 95 98 186 198 191 175 132 221 241 3 87 102 98 101 101 98 104 122 123 127 121 98 102
320 318 317 316 315 315 315 313 311 309 310 309 299 275 244 248 212 199 213 229 150 179 227 269 299 299 305 272 273 310 318 332 23 49 69 100 121 133 74 31 31 44 1 66 21 25 35 66 49 270 184 326 60 35 38 124 71 40 35 316 248 180 207 158 170 167 214 199 156 116 102 79 109 162 129 119 139 117 118 125 130 125 128 130 124 119 114
317 316 315 314 314 313 313 312 311 310 311 314 305 292 257 229 217 197 203 185 193 277 261 266 282 315 346 306 317 320 324 56 40 45 43 30 29 27 52 63 67 118 88 71 99 100 86 123 188 84 25 240 93 117 32 37 36 90 271 297 314 238 211 208 202 131 345 132 136 151 136 154 150 119 119 99 102 114 102 101 116 129 130 130 130 135 131
317 316 315 314 313 313 311 310 310 309 306 326 325 350 5 353 176 188 180 172 172 272 340 345 339 263 303 319 293 289 302 345 25 30 37 25 18 20 5 35 27 49 83 109 125 79 225 112 327 309 330 354 120 156 77 154 91 250 287 326 312 308 264 224 172 136 183 125 106 85 99 92 86 98 74 80 70 112 119 128 127 117 114 126 121 116 124
317 316 315 313 311 310 309 308 301 293 297 280 39 49 54 6 260 156 168 163 187 221 228 180 247 297 320 257 234 285 306 344 14 22 12 19 82 352 333 80 39 66 44 3 45 79 86 22 8 340 327 31 92 87 145 103 54 317 324 336 322 317 302 225 313 111 117 97 89 82 78 96 110 83 46 57 88 100 101 96 106 116 120 121 124 125 121
317 315 314 314 311 308 305 300 294 283 223 183 191 170 176 182 284 140 158 160 156 252 288 333 330 356 304 312 293 267 335 351 39 18 356 16 5 7 16 52 71 3 108 99 180 50 35 231 90 337 35 336 62 98 78 76 101 259 328 344 337 343 44 108 99 84 95 113 103 73 67 63 45 127 163 148 96 96 108 109 107 110 113 113 115 121 128
317 316 313 311 309 307 305 298 285 251 202 238 278 296 280 263 198 122 162 140 137 223 145 78 216 269 295 261 311 317 345 12 11 29 354 324 356 16 27 6 12 36 11 81 1 81 235 102 16 50 336 9 73 85 78 57 225 300 319 321 347 25 65 74 88 94 106 69 78 142 175 173 137 102 115 109 108 110 111 108 109 108 108 109 108 109 110
318 315 313 310 307 305 303 302 307 210 174 299 277 222 275 207 191 173 168 146 136 204 83 118 312 321 270 314 31 281 37 108 286 44 22 311 230 68 313 26 359 77 346 77 275 60 352 60 39 294 338 17 23 71 56 303 301 321 347 27 29 53 73 76 72 73 24 42 47 76 111 115 107 107 97 100 99 100 104 110 116 114 112 114 117 120 121
318 314 311 309 304 301 304 308 117 144 191 225 265 264 91 105 171 181 176 138 108 333 359 294 137 306 338 345 36 273 311 87 26 319 103 316 27 46 339 55 328 69 315 78 48 61 38 3 177 60 307 312 42 50 234 210 236 281 56 71 32 77 91 75 30 53 96 94 95 102 108 110 108 105 109 109 112 118 116 114 120 119 118 119 124 127 132
316 313 310 306 302 298 296 72 96 114 356 253 200 60 335 331 184 161 180 212 231 155 143 254 94 222 158 261 325 286 289 67 335 347 295 315 357 29 91 103 59 354 320 72 124 356 53 327 62 306 304 62 235 186 232 193 187 216 117 103 301 142 159 168 142 113 98 101 108 110 107 105 111 116 114 116 117 120 120 120 121 125 125 130 132 134 130
316 313 310 301 296 104 344 209 323 104 229 281 283 295 296 105 79 101 146 263 270 77 200 180 323 244 174 225 255 274 49 294 342 24 341 33 258 292 38 42 80 310 37 9 16 43 318 44 99 77 357 163 247 240 243 226 189 168 159 165 153 134 105 109 128 117 101 105 112 115 120 116 111 112 116 120 120 121 125 133 142 142 144 143 144 146 148
316 314 320 7 38 30 332 322 349 314 318 300 302 88 23 352 111 21 12 123 266 93 315 90 248 252 331 106 253 252 70 275 56 118 314 238 64 328 11 88 249 68 43 262 271 173 74 33 41 71 274 244 244 261 255 225 233 254 151 150 172 152 134 132 136 118 113 102 90 109 111 129 130 135 132 132 134 136 135 126 116 118 124 136 142 141 138
318 323 29 16 83 224 202 255 333 324 310 277 60 62 306 14 69 128 219 238 22 259 269 148 248 193 135 159 274 289 122 137 29 20 100 275 107 306 9 62 304 70 2 33 315 73 15 352 7 4 298 291 336 258 249 264 248 230 203 170 160 165 141 135 162 148 151 167 169 169 156 156 149 151 146 137 129 119 124 125 123 124 124 119 127 135 138
9 16 0 345 348 260 298 301 329 319 336 38 325 103 204 328 96 276 292 53 310 270 100 251 218 180 195 197 196 296 360 52 18 301 169 314 352 97 270 96 266 90 3 86 257 37 104 280 308 35 293 255 236 252 259 175 186 218 210 165 153 155 153 126 91 16 84 108 128 148 154 152 153 144 148 143 136 129 128 134 138 139 141 143 141 145 150
17 336 343 331 293 320 308 316 321 30 50 45 3 3 67 329 284 192 50 38 251 243 201 194 352 319 243 89 98 297 288 92 137 134 115 102 251 84 50 37 251 67 335 298 275 68 69 75 360 197 243 229 202 198 195 140 197 215 228 162 128 109 112 116 109 112 117 120 121 127 149 152 155 151 149 153 148 146 149 144 142 144 136 136 147 147 132
265 261 252 281 284 281 298 306 355 32 360 83 125 273 236 224 301 357 134 152 257 268 313 185 285 210 279 192 210 152 321 207 119 94 89 59 308 90 225 317 6 92 246 239 124 58 75 11 305 281 259 247 230 163 147 177 210 186 221 157 125 114 108 118 121 121 127 125 129 134 136 143 146 144 147 145 147 145 142 140 140 144 149 150 137 132 136
299 288 222 277 310 289 219 337 288 106 154 335 47 3 346 50 234 193 278 277 298 105 268 251 264 196 297 48 331 91 174 281 22 339 61 247 290 53 80 17 47 3 232 328 64 60 23 232 241 253 257 256 211 170 178 187 179 198 205 156 145 145 137 136 138 142 151 136 129 129 133 124 114 117 124 123 120 119 124 133 142 143 146 145 147 139 134
262 201 146 264 330 285 90 253 274 58 329 74 116 197 261 322 306 34 359 278 286 352 306 27 321 46 297 312 136 320 356 1 51 76 54 324 86 313 57 232 223 244 20 43 42 161 222 225 216 228 249 222 198 178 177 177 146 141 138 153 144 129 114 103 102 100 86 84 106 112 110 112 111 110 117 131 139 135 130 128 136 137 139 136 132 130 129
65 352 18 3 6 275 82 269 336 122 201 227 150 193 157 178 242 175 200 246 125 265 279 100 168 19 288 277 4 338 117 192 314 97 241 79 52 16 107 258 254 36 75 241 324 322 345 280 268 250 231 193 194 189 181 167 152 160 163 151 147 131 126 128 126 116 117 117 125 120 116 118 109 112 121 131 131 136 133 134 138 127 128 123 122 121 135
54 123 59 92 266 283 142 230 67 266 289 160 199 199 171 232 168 225 252 135 289 317 341 319 344 212 261 257 151 231 351 92 74 246 152 68 102 253 246 255 75 62 9 45 356 240 223 241 224 214 201 189 177 179 172 171 168 146 130 158 175 150 144 137 138 131 129 118 115 117 123 117 116 114 114 123 132 134 127 130 135 132 129 127 139 143 153
8 333 122 72 100 272 90 182 225 201 178 218 221 184 188 209 206 226 253 175 267 266 289 250 231 219 232 274 190 320 26 54 134 268 74 66 195 262 7 96 268 207 142 277 255 257 270 256 236 211 183 174 164 167 168 165 158 157 166 155 161 151 134 136 138 137 137 130 127 124 121 116 109 114 118 117 122 125 126 130 137 142 143 147 151 143 144
45 265 76 153 230 203 171 237 273 301 247 211 279 202 250 219 26 346 315 290 264 344 332 340 337 329 258 285 83 174 214 30 117 273 158 167 36 40 13 31 299 251 187 186 236 225 237 249 213 185 177 168 162 163 167 162 166 169 162 156 155 144 142 143 146 143 142 140 142 140 131 125 127 133 137 137 129 128 135 140 146 143 136 133 144 152 149
192 80 136 217 219 222 248 272 17 332 302 356 324 33 24 26 354 292 304 323 344 322 283 250 223 121 273 196 113 90 307 12 100 247 18 34 97 214 154 225 290 317 264 187 227 230 229 237 193 160 153 156 166 162 166 163 166 168 162 159 162 160 153 156 156 157 155 148 143 140 139 136 130 127 127 132 134 142 145 140 141 144 146 145 149 150 148
91 320 338 45 345 301 262 266 280 286 319 352 29 4 357 16 351 312 326 349 331 319 321 55 109 127 242 139 207 21 246 252 148 37 64 163 195 180 74 310 232 201 260 242 226 244 231 195 149 151 164 164 166 164 159 167 164 165 164 157 147 145 151 148 143 141 138 137 138 137 136 133 132 133 140 139 128 120 121 133 138 135 139 143 143 145 150
298 143 240 171 183 236 19 3 28 329 322 321 347 333 8 349 335 316 345 339 325 355 31 5 310 90 186 33 64 31 241 178 86 156 160 201 196 115 165 207 244 215 234 236 224 227 177 172 161 157 160 168 169 166 160 161 162 159 146 138 143 141 143 148 144 133 128 133 134 132 139 146 148 137 127 116 118 118 112 109 128 131 132 137 141 141 147
31 332 276 301 286 220 202 220 222 238 247 268 317 268 10 333 307 300 326 344 359 44 342 296 346 322 63 197 219 194 64 45 45 53 13 270 156 144 216 201 230 235 231 247 242 188 168 175 178 168 167 169 170 163 154 153 146 141 137 138 139 140 141 139 139 138 134 134 143 140 137 134 132 130 135 132 130 133 139 142 143 137 137 142 153 153 151